Zurück zum Katalog

STARLINK-32554

AktivKommunikationVLEO
NORAD 62136·PAYLOAD·🇺🇸 United States

Gestartet Nov 27, 2024 von Cape Canaveral Space Force Station

Loading…

Nächste Überflüge (nächste 24 Stunden)

TLE

AktuellSource: CelesTrak SupGP

Epoche: Sep 14, 2026, 22:58 UTC

1 62136C 24222Y   26257.95743056 -.00028348  00000+0 -10269-2 0  2574
2 62136  43.0016 147.2265 0001330 273.4971 167.2971 15.27587497    10

Verfolge STARLINK-32554 in Echtzeit mit AllMySat

Download on the App Store